Location: Peebles
(55.6412°N, 3.1714°W)
Time: 17:15:56
(UTC+01:00)

Cosmos 1934 Rocket - Pass Details

Date: 31 January 2022
Orbit: 938 x 999 km, 83.0° (Epoch: 25 May)

Event Time Altitude Azimuth Distance (km) Brightness Sun altitude
Rises 19:23:50 0° 343° (NNW) 3,640 7.2 -22.2°
Reaches altitude 10° 19:26:50 10° 330° (NNW) 2,682 6.7 -22.7°
Maximum altitude 19:31:26 23° 280° (W) 1,897 6.3 -23.3°
Drops below altitude 10° 19:35:59 10° 231° (SW) 2,653 6.9 -24.0°
Sets 19:38:57 0° 217° (SW) 3,591 7.4 -24.4°
